Weather History for North Platte, NE

Change the Weather History Date:

Saturday, January 19, 2013

  Actual Average Record
Temperature  
Mean Temperature 38 °F 25 °F  
Max Temperature 57 °F 39 °F 66 °F (2014)
Min Temperature 18 °F 11 °F -27 °F (1885)
Degree Days  
Heating Degree Days 27 40  
Month to date heating degree days 789 765  
Since 1 July heating degree days 3504 3545  
Cooling Degree Days 0 0  
Month to date cooling degree days 0 0  
Year to date cooling degree days 0 0  
Moisture  
Dew Point 19 °F    
Average Humidity 52    
Maximum Humidity 81    
Minimum Humidity 22    
Precipitation  
Precipitation 0.00 in 0.01 in 0.47 in (2011)
Month to date precipitation 0.03 0.21  
Year to date precipitation 0.03 0.21  
Snow  
Snow 0.00 in 0.20 in 6.30 in (2011)
Month to date snowfall 0.7 3.0  
Since 1 July snowfall 8.6 13.8  
Snow Depth 0.00 in    
Sea Level Pressure  
Sea Level Pressure 30.17 in    
Wind  
Wind Speed 9 mph (NW)    
Max Wind Speed 23 mph    
Max Gust Speed 29 mph    
Visibility 10 miles    
Events      
T = Trace of Precipitation, MM = Missing Value Source: NWS Daily Summary

Daily Weather History Graph

Daily Weather History Graph

Search for Another Location

Airport:

Trip Planner

Search our weather history database for the weather conditions in past years. The results will help you decide how hot, cold, wet, or windy it might be!

Date:

Astronomy

Jan. 19, 2013 Rise Set
Actual Time 8:03 AM CST 5:43 PM CST
Civil Twilight 7:33 AM CST 6:13 PM CST
Nautical Twilight 6:59 AM CST 6:47 PM CST
Astronomical Twilight 6:26 AM CST 7:20 PM CST
Moon 12:11 PM CST (1/19) 1:38 AM CST (1/19)
Length of Visible Light 10h 40m
Length of Day
9h 40m
First Quarter, 57% of the Moon is Illuminated
Jan 19
First Quarter
Jan 26
Full
Feb 3
Last Quarter
Feb 10
New
Feb 17
First Quarter

Hourly Weather History & Observations

Time (CST) Temp. Windchill Dew Point Humidity Pressure Visibility Wind Dir Wind Speed Gust Speed Precip Events Conditions
12:53 AM 25.0 °F 18.1 °F 18.0 °F 75% 29.98 in 10.0 mi WNW 5.8 mph - N/A   Clear
1:53 AM 23.0 °F 14.7 °F 17.1 °F 78% 29.98 in 10.0 mi West 6.9 mph - N/A   Clear
2:53 AM 23.0 °F 14.7 °F 18.0 °F 81% 29.99 in 10.0 mi WNW 6.9 mph - N/A   Clear
3:53 AM 24.1 °F 15.2 °F 18.0 °F 77% 30.00 in 10.0 mi NW 8.1 mph - N/A   Clear
4:53 AM 21.9 °F 13.4 °F 16.0 °F 78% 30.03 in 10.0 mi WNW 6.9 mph - N/A   Clear
5:53 AM 21.0 °F 10.6 °F 16.0 °F 81% 30.08 in 10.0 mi WNW 9.2 mph - N/A   Clear
6:53 AM 21.0 °F 11.4 °F 15.1 °F 78% 30.13 in 10.0 mi WNW 8.1 mph - N/A   Clear
7:53 AM 25.0 °F 17.1 °F 17.1 °F 72% 30.15 in 10.0 mi West 6.9 mph - N/A   Clear
8:53 AM 25.0 °F 19.3 °F 18.0 °F 75% 30.18 in 10.0 mi WNW 4.6 mph - N/A   Clear
9:53 AM 37.0 °F 31.6 °F 25.0 °F 62% 30.20 in 10.0 mi WNW 6.9 mph - N/A   Clear
10:53 AM 45.0 °F 38.9 °F 21.9 °F 40% 30.21 in 10.0 mi West 12.7 mph - N/A   Clear
11:53 AM 53.1 °F - 21.0 °F 29% 30.17 in 10.0 mi West 9.2 mph - N/A   Clear
12:53 PM 55.9 °F - 19.0 °F 24% 30.16 in 10.0 mi WNW 16.1 mph 24.2 mph N/A   Clear
1:53 PM 55.9 °F - 18.0 °F 23% 30.16 in 10.0 mi NW 24.2 mph 28.8 mph N/A   Clear
2:53 PM 55.9 °F - 18.0 °F 23% 30.16 in 10.0 mi NW 17.3 mph - N/A   Clear
3:53 PM 55.0 °F - 18.0 °F 23% 30.17 in 10.0 mi NNW 11.5 mph - N/A   Clear
4:53 PM 53.1 °F - 19.0 °F 26% 30.19 in 10.0 mi NNW 10.4 mph - N/A   Clear
5:53 PM 45.0 °F 41.8 °F 19.0 °F 36% 30.24 in 10.0 mi North 5.8 mph - N/A   Clear
6:53 PM 36.0 °F 31.1 °F 21.9 °F 57% 30.28 in 10.0 mi NE 5.8 mph - N/A   Clear
7:53 PM 36.0 °F 27.5 °F 23.0 °F 59% 30.29 in 10.0 mi NNE 12.7 mph - N/A   Clear
8:53 PM 32.0 °F 28.7 °F 21.9 °F 66% 30.32 in 10.0 mi SE 3.5 mph - N/A   Clear
9:53 PM 30.0 °F 22.4 °F 21.9 °F 72% 30.32 in 10.0 mi ENE 8.1 mph - N/A   Clear
10:53 PM 27.0 °F 21.6 °F 21.0 °F 78% 30.30 in 10.0 mi East 4.6 mph - N/A   Clear
11:53 PM 25.0 °F - 21.0 °F 85% 30.29 in 10.0 mi Calm Calm - N/A   Clear